SL-14 DEB, 45300

Orbit data source: Space-Track

SL-14 DEB, 45300 is space debris in LEO originally from a launch on Thu, 15 Aug 1991 UTC launched from the Plesetsk Missile And Space Complex (PKMTR). Debris objects in space refer to the collection of defunct objects orbiting the Earth. Examples of debris include non-operational satellites, rocket bodies, and fragments generated from explosions, collisions, or faulty payload assembly.

Loading next visibility...
SL-14 DEB details
Identifier
45300, 1991-056AN
Orbit
LEO
Last TLE update8 hours ago
Origin
Flag of CISRosgidromet (CIS)
ManufacturerUnknown
MissionSpacecraft
Bus & MotorUnknown
MassUnknown
Launch date (UTC)
1991-08-15 (33 years ago)
Launch vehicleUnknown
Launch site
Plesetsk Missile And Space Complex (PKMTR)
Object type
Payload
Rocket body
Debris
Shape & HBRUnknown
Radar Cross SectionSmall (<0.1 m²)

Expand to show TLE details & history

TLE from 8 hours ago
0 SL-14 DEB
1 45300U 91056AN  24361.09183395  .00000722  00000-0  24819-2 0  9994
2 45300  82.5549 211.8219 0130606 319.9216  39.2312 12.93854377228212
Epoch: 2024-12-26T02:12Z
Definitive object data (Epoch: 2024-12-26T02:12:14.453Z)
Latitude-0.00002°
Longitude83.68548°
Altitude1,212.018 km
Speed7.285 km/s
True Right ascension14h 07m 17s
True Declination0° 00' 00"
Sunlit
Object was in daylight at TLE epoch
Visualization TLE readout
Latitude64.41705°
Longitude-112.30081°
Altitude1,388.226 km
Speed7.129 km/s
Apparent Right ascension22h 57m 58s
Apparent Declination21° 21' 09"
Sunlit
Object is in daylight
Visualization observer readout
Local Sidereal Time09:34:19
Azimuth338.352° N
Elevation-25.7°
Doppler factor1
Orbital elements
Apogee altitude1,383.607 km
Perigee altitude1,183.475 km
Semi-major axis7,661.678 km
Eccentricity0.0130606
Inclination82.5549°
RAAN211.8219°
Arg. of periapsis319.9216°
True anomaly40.18982°
Mean anomaly39.2312°
Eccentric anomaly39.70929°
Mean motion3.23636 °/min
BSTAR0.0024819
Orbital period111.24 mins
Loading maneuver chart data...
Loading historical data...
Loading historical data...
Loading historical data...
Loading historical data...
Loading historical data...
Loading historical data...
Loading historical data...

SL-14 DEB Visibility forecast

Observer location: undefined°, undefined

Span
Click to sort rows by Start time (UTC) header in descending order
Start Az.
Max El. time (UTC)
Max El. Az.
Max El.
End time (UTC)
End Az.
9 mins2024-12-26 13:28:10.636Z120.373° SE2024-12-26 13:33:10.636Z76.674° E18.745°2024-12-26 13:37:10.636Z42.574° NE
13 mins2024-12-26 15:18:10.636Z196.226° SSW2024-12-26 15:24:10.636Z283.339° WNW43.725°2024-12-26 15:31:10.636Z3.241° NNE
4 mins2024-12-26 17:16:10.636Z286.802° WNW2024-12-26 17:18:10.636Z303.001° NW12.276°2024-12-26 17:20:10.636Z318.727° NNW
13 mins2024-12-27 01:05:10.636Z13.783° NNE2024-12-27 01:11:10.636Z73.338° E31.015°2024-12-27 01:18:10.636Z136.412° SSE
13 mins2024-12-27 02:57:10.636Z336.371° NNW2024-12-27 03:03:10.636Z276.419° WNW35.767°2024-12-27 03:10:10.636Z204.62° SW
|